Date String (YYYY-MM-DD hh:mm:ss) UTC,Instrument flags,Ambient pressure (hPa),Sample flow (lpm),Bypass flow (lpm),Sample temperature (°C),Ambient temperature (°C),ASC tube jacket temperature (°C),LED temperature (°C),Box temperature (°C),Sample RH (%),Span deviation,Mass concentration (μg/m³),Mass concentration (μg/m³),Mass concentration (μg/m³)
DateTimeUTC,F1_M11,P_M11,Q1_M11,Q2_M11,T1_M11,T2_M11,T3_M11,T4_M11,T5_M11,U1_M11,ZSPAN_M11,X0_M11,X2_M11,X1_M11
2022-01-02 19:00:00,,0828.1,5.00,0.00,26.0,25.4,00.0,34.8,27.9,10.6,0000.0,0002.92,0000.05,0000.00
2022-01-02 19:01:00,,0828.1,4.99,0.00,26.0,25.4,00.0,34.8,27.9,10.4,0000.0,0002.96,0000.06,0000.00
2022-01-02 19:02:00,,0828.1,5.01,0.00,26.1,25.4,00.0,34.8,27.9,10.0,0000.0,0002.97,0000.07,0000.00
2022-01-02 19:03:00,,0828.1,5.00,0.00,26.1,25.4,00.0,34.8,27.9,10.2,0000.0,0002.97,0000.07,0000.00
2022-01-02 19:04:00,,0828.1,5.01,0.00,26.1,25.4,00.0,34.8,28.0,10.0,0000.0,0002.00,0000.06,0000.00
2022-01-02 19:05:00,,0828.1,4.98,0.00,26.1,25.5,00.0,34.9,28.0,10.0,0000.0,0000.55,0000.05,0000.00
2022-01-02 19:06:00,,0828.1,5.01,0.00,26.1,25.5,00.0,34.9,28.0,10.0,0000.0,0000.09,0000.03,0000.00
2022-01-02 19:07:00,,0828.1,4.99,0.00,26.2,25.5,00.0,34.9,28.0,09.9,0000.0,0000.09,0000.03,0000.00
2022-01-02 19:08:00,,0828.1,5.01,0.00,26.2,25.5,00.0,34.9,28.0,09.7,0000.0,0000.09,0000.03,0000.00
2022-01-02 19:09:00,,0828.1,4.99,0.00,26.2,25.5,00.0,35.0,28.0,09.7,0000.0,0000.05,0000.02,0000.00
2022-01-02 19:10:00,,0828.1,5.00,0.00,26.2,25.5,00.0,35.0,28.1,09.9,0000.0,0000.05,0000.02,0000.00
2022-01-02 19:11:00,,0828.0,5.00,0.00,26.2,25.6,00.0,35.0,28.1,09.7,0000.0,0000.05,0000.02,0000.00
2022-01-02 19:12:00,,0828.1,5.02,0.00,26.3,25.6,00.0,35.0,28.1,09.4,0000.0,0000.02,0000.01,0000.00
2022-01-02 19:13:00,,0828.0,4.98,0.00,26.3,25.6,00.0,35.0,28.1,09.5,0000.0,0000.01,0000.01,0000.00
2022-01-02 19:14:00,,0828.0,5.01,0.00,26.3,25.6,00.0,35.1,28.2,09.7,0000.0,0000.01,0000.01,0000.00
2022-01-02 19:15:00,,0828.1,4.99,0.00,26.3,25.7,00.0,35.1,28.2,09.7,0000.0,0000.09,0000.02,0000.01
2022-01-02 19:16:00,,0828.0,4.99,0.00,26.4,25.7,00.0,35.1,28.2,10.4,0000.0,0000.15,0000.02,0000.01
2022-01-02 19:17:00,,0828.0,5.01,0.00,26.4,25.7,00.0,35.1,28.2,10.8,0000.0,0000.17,0000.04,0000.01
2022-01-02 19:18:00,,0828.0,4.99,0.00,26.4,25.7,00.0,35.2,28.3,10.0,0000.0,0000.20,0000.05,0000.01
2022-01-02 19:19:00,,0828.0,5.00,0.00,26.4,25.8,00.0,35.2,28.3,09.9,0000.0,0000.26,0000.08,0000.01
2022-01-02 19:20:00,,0828.0,4.99,0.00,26.4,25.8,00.0,35.2,28.3,10.0,0000.0,0000.28,0000.08,0000.01
2022-01-02 19:21:00,,0828.0,5.01,0.00,26.5,25.8,00.0,35.2,28.3,10.4,0000.0,0000.29,0000.09,0000.01
2022-01-02 19:22:00,,0828.0,4.99,0.00,26.5,25.8,00.0,35.2,28.3,10.3,0000.0,0000.31,0000.10,0000.01
2022-01-02 19:23:00,,0828.0,5.01,0.00,26.5,25.9,00.0,35.3,28.4,10.2,0000.0,0000.33,0000.11,0000.01
2022-01-02 19:24:00,,0827.9,5.00,0.00,26.5,25.9,00.0,35.3,28.4,09.9,0000.0,0001.11,0000.12,0000.02
2022-01-02 19:25:00,,0827.9,5.00,0.00,26.6,25.9,00.0,35.3,28.4,09.8,0000.0,0001.44,0000.13,0000.02
2022-01-02 19:26:00,,0827.8,5.00,0.00,26.6,25.9,00.0,35.3,28.4,09.6,0000.0,0001.40,0000.12,0000.01
2022-01-02 19:27:00,,0827.9,5.00,0.00,26.6,25.9,00.0,35.3,28.5,09.3,0000.0,0001.33,0000.11,0000.01
2022-01-02 19:28:00,,0827.9,5.00,0.00,26.6,25.9,00.0,35.4,28.5,09.2,0000.0,0001.31,0000.09,0000.01
2022-01-02 19:29:00,,0827.9,5.02,0.00,26.6,25.9,00.0,35.4,28.5,09.2,0000.0,0001.29,0000.09,0000.01
2022-01-02 19:30:00,,0827.9,4.99,0.00,26.7,26.0,00.0,35.4,28.5,09.5,0000.0,0001.23,0000.06,0000.01
2022-01-02 19:31:00,,0827.9,5.01,0.00,26.7,26.0,00.0,35.4,28.5,09.5,0000.0,0001.20,0000.05,0000.01
2022-01-02 19:32:00,,0827.9,4.98,0.00,26.7,26.0,00.0,35.5,28.6,10.0,0000.0,0001.19,0000.05,0000.01
2022-01-02 19:33:00,,0827.9,5.01,0.00,26.7,26.1,00.0,35.5,28.6,10.2,0000.0,0002.25,0000.06,0000.01
2022-01-02 19:34:00,,0827.9,5.00,0.00,26.7,26.1,00.0,35.5,28.6,10.0,0000.0,0003.58,0000.06,0000.01
2022-01-02 19:35:00,,0827.9,5.00,0.00,26.8,26.1,00.0,35.5,28.6,10.1,0000.0,0003.02,0000.05,0000.01
2022-01-02 19:36:00,,0827.9,5.00,0.00,26.8,26.1,00.0,35.6,28.6,10.2,0000.0,0002.63,0000.06,0000.01
2022-01-02 19:37:00,,0827.9,5.00,0.00,26.8,26.1,00.0,35.6,28.7,09.9,0000.0,0002.61,0000.07,0000.01
2022-01-02 19:38:00,,0827.9,5.00,0.00,26.8,26.2,00.0,35.6,28.7,09.7,0000.0,0003.68,0000.09,0000.01
2022-01-02 19:39:00,,0827.9,5.01,0.00,26.9,26.2,00.0,35.6,28.7,09.3,0000.0,0003.82,0000.10,0000.01
2022-01-02 19:40:00,,0827.9,4.99,0.00,26.9,26.2,00.0,35.6,28.7,09.2,0000.0,0003.82,0000.10,0000.01
2022-01-02 19:41:00,,0827.9,4.99,0.00,26.9,26.3,00.0,35.7,28.8,09.9,0000.0,0003.82,0000.09,0000.01
2022-01-02 19:42:00,,0827.9,5.01,0.00,26.9,26.3,00.0,35.7,28.8,10.0,0000.0,0003.81,0000.09,0000.00
2022-01-02 19:43:00,,0827.9,5.01,0.00,27.0,26.3,00.0,35.7,28.8,09.9,0000.0,0003.81,0000.09,0000.00
2022-01-02 19:44:00,,0827.9,4.98,0.00,27.0,26.3,00.0,35.7,28.8,10.0,0000.0,0002.71,0000.07,0000.00
2022-01-02 19:45:00,,0827.9,5.00,0.00,27.0,26.4,00.0,35.7,28.8,09.8,0000.0,0001.99,0000.06,0000.00
2022-01-02 19:46:00,,0827.9,5.01,0.00,27.0,26.4,00.0,35.8,28.9,09.6,0000.0,0002.24,0000.06,0000.00
2022-01-02 19:47:00,,0827.9,4.98,0.00,27.0,26.4,00.0,35.8,28.9,09.6,0000.0,0002.27,0000.05,0000.00
2022-01-02 19:48:00,,0827.9,5.01,0.00,27.1,26.4,00.0,35.8,28.9,09.4,0000.0,0002.27,0000.05,0000.00
2022-01-02 19:49:00,,0827.9,5.00,0.00,27.1,26.4,00.0,35.8,28.9,09.1,0000.0,0001.21,0000.05,0000.00
2022-01-02 19:50:00,,0827.9,4.99,0.00,27.1,26.5,00.0,35.9,29.0,09.0,0000.0,0001.11,0000.05,0000.00
2022-01-02 19:51:00,,0827.9,5.01,0.00,27.1,26.5,00.0,35.9,29.0,09.0,0000.0,0001.11,0000.05,0000.00
2022-01-02 19:52:00,,0827.9,4.99,0.00,27.1,26.5,00.0,35.9,29.0,08.9,0000.0,0001.11,0000.05,0000.00
2022-01-02 19:53:00,,0827.8,5.00,0.00,27.2,26.5,00.0,35.9,29.0,08.4,0000.0,0001.11,0000.05,0000.00
2022-01-02 19:54:00,,0827.9,5.00,0.00,27.2,26.5,00.0,35.9,29.0,08.6,0000.0,0001.11,0000.05,0000.01
2022-01-02 19:55:00,,0827.8,5.01,0.00,27.2,26.5,00.0,36.0,29.1,08.4,0000.0,0001.11,0000.05,0000.01
2022-01-02 19:56:00,,0827.8,5.01,0.00,27.2,26.6,00.0,36.0,29.1,08.5,0000.0,0000.45,0000.06,0000.01
2022-01-02 19:57:00,,0827.8,4.98,0.00,27.3,26.6,00.0,36.0,29.1,08.5,0000.0,0000.19,0000.07,0000.01
2022-01-02 19:58:00,,0827.9,5.01,0.00,27.3,26.6,00.0,36.0,29.1,08.5,0000.0,0000.14,0000.07,0000.01
2022-01-02 19:59:00,,0827.9,5.00,0.00,27.3,26.6,00.0,36.1,29.1,08.4,0000.0,0000.11,0000.05,0000.01
